Regional Weather Roundup
Issued by NWS

Home | Current Version | Previous Version | Text Only | Print | Product List | Glossary Off
Versions: 1 2 3 4 5 6 7 8 9 10 11 12 13 14 15 16 17 18 19 20 21 22 23 24 25 26 27 28 29 30 31 32 33 34 35 36 37 38 39 40 41 42 43 44 45 46 47 48 49 50

000
ASUS45 KSLC 201010
RWRUT

UTAH REGIONAL WEATHER ROUNDUP
NATIONAL WEATHER SERVICE SALT LAKE CITY UT
300 AM MST SAT DEC 20 2014

UTZ001>011-023>025-201100-

NORTHERN UTAH

CITY           SKY/WX    TMP DP  RH WIND       PRES   REMARKS
BRIGHAM CITY   CLOUDY    37  34  90 CALM      30.15R
HILL AFB       CLOUDY    36  36  99 W3        30.12S
LOGAN          CLOUDY    35  34  96 CALM      30.12S
OGDEN          CLOUDY    37  36  96 CALM      30.12F
PROVO AIRPORT  PTCLDY    36  32  87 NE3       30.15F
SALT LAKE CITY MOCLDY    39  34  82 CALM      30.13S
VERNAL         CLOUDY    27  22  81 CALM      30.19S
WENDOVER       CLOUDY    30  27  86 NE5       30.14R WCI  25
HEBER CITY     LGT SNOW  32  30  93 E3        30.13R
WEST JORDAN    CLOUDY    37  36  93 S14       30.13S WCI  29

$$

UTZ012>022-026-027-201100-

SOUTHERN/CENTRAL UTAH

CITY           SKY/WX    TMP DP  RH WIND       PRES   REMARKS
BLANDING       CLOUDY    27  26  96 N3        30.26S
BRYCE CANYON   CLEAR     15  12  88 SW6       30.15S WCI   6
CEDAR CITY     CLEAR     32  24  72 VRB5      30.13F WCI  27
DELTA          CLOUDY    37  29  75 S6        30.14R WCI  32
MILFORD        CLEAR     33  26  75 SW13      30.13R WCI  24
MOAB/CYNLANDS  CLOUDY    32  30  92 E3        30.19F
PRICE          MOCLDY    25  21  85 NE3       30.17S
ST GEORGE      MOSUNNY   39  32  75 CALM      30.19S
KANAB          CLEAR     32  30  93 NW5       30.21S WCI  27

$$

REGIONAL REPORTS     COLORADO/ARIZONA

CITY           SKY/WX    TMP DP  RH WIND       PRES   REMARKS
CRAIG, CO      CLOUDY    23  18  81 CALM      30.17
GRAND JUNCTION PTCLDY    30  25  81 SE10      30.21S WCI  21
RIFLE          MOCLDY    27  20  75 CALM      30.23R
MONTROSE       MOCLDY    25  17  72 E3        30.22F
CORTEZ         CLEAR     23  19  85 NE5       30.19S WCI  17
PAGE, AZ       MOCLDY    38  29  70 SE3       30.17F
GRAND CANYON   CLOUDY    26  24  92 CALM      30.18S
KINGMAN        MOCLDY    37  31  78 SW5       30.15F WCI  33
FLAGSTAFF      MOCLDY    26  23  88 CALM      30.17S

$$

REGIONAL REPORTS    NEVADA/IDAHO/WYOMING

CITY           SKY/WX    TMP DP  RH WIND       PRES   REMARKS
LAS VEGAS, NV  PTCLDY    44  37  76 S9        30.12F
ELY            PTCLDY    24  22  91 S7        30.16R WCI  16
ELKO           CLOUDY    32  30  92 E3        30.11R
POCATELLO, ID  CLOUDY    36  34  92 S9        30.10R WCI  29
BURLEY         CLOUDY    35  32  88 S6        30.09R WCI  30
EVANSTON, WY   CLOUDY    30  25  81 SW12      30.09S WCI  20
ROCK SPRINGS   CLOUDY    28  21  75 SW9       30.07F WCI  19
KEMMERER       CLOUDY    28  27  93 SW5       30.07S WCI  23

$$


USA.gov is the U.S. government's official web portal to all federal, state and local government web resources and services.